EW0105 Weather Reports


time (UTC)temp
C
wind
direction
speed
KPH
gust
KPH
rain 1hr
cm
rain 24hr
cm
rain mn
cm
humidity
%
barometer
mb
20260905204516 36 360 0.0 0.0 0.00 0.00 0.00 44 1010.1
20260905203016 35 360 0.0 9.7 0.00 0.00 0.00 45 1010.2
20260905201512 36 360 0.0 0.0 0.00 0.00 0.00 45 1010.4
20260905200104 36 360 0.0 0.0 0.00 0.00 0.00 43 1010.4
20260905194553 36 360 0.0 12.9 0.00 0.00 0.00 44 1010.4
20260905193028 36 360 0.0 0.0 0.00 0.00 0.00 44 1010.5
20260905191527 35 360 0.0 0.0 0.00 0.00 0.00 43 1010.7
20260905190013 35 360 0.0 0.0 0.00 0.00 0.00 44 1010.9
20260905184516 35 360 0.0 0.0 0.00 0.00 0.00 43 1011.1
20260905183008 35 360 0.0 0.0 0.00 0.00 0.00 43 1011.3
20260905181508 35 360 0.0 0.0 0.00 0.00 0.00 44 1011.3
20260905180006 35 360 0.0 0.0 0.00 0.00 0.00 43 1011.5
20260905174505 34 360 0.0 0.0 0.00 0.00 0.00 44 1011.5
20260905173005 35 360 0.0 0.0 0.00 0.00 0.00 43 1011.7
20260905171503 35 360 0.0 0.0 0.00 0.00 0.00 43 1011.8
20260905170044 35 360 0.0 0.0 0.00 0.00 0.00 41 1011.7
20260905164542 34 360 0.0 0.0 0.00 0.00 0.00 41 1012.1
20260905163022 34 360 0.0 1.6 0.00 0.00 0.00 41 1012.2
20260905161521 34 360 0.0 0.0 0.00 0.00 0.00 40 1012.2
20260905160004 33 360 0.0 0.0 0.00 0.00 0.00 39 1012.4
20260905154607 33 360 0.0 0.0 0.00 0.00 0.00 37 1012.2
20260905153039 33 360 0.0 0.0 0.00 0.00 0.00 35 1012.3
20260905151537 32 360 0.0 0.0 0.00 0.00 0.00 32 1012.4
20260905150018 32 360 0.0 0.0 0.00 0.00 0.00 29 1012.5
20260905144518 31 360 0.0 0.0 0.00 0.00 0.00 26 1012.3
20260905143055 31 360 0.0 0.0 0.00 0.00 0.00 25 1012.2
20260905141549 30 360 0.0 0.0 0.00 0.00 0.00 19 1012.3
20260905140027 30 134 0.0 0.0 0.00 0.00 0.00 12 1012.4
20260905134530 29 360 0.0 0.0 0.00 0.00 0.00 100 1012.4
20260905133001 28 360 0.0 0.0 0.00 0.00 0.00 100 1012.5
20260905131558 27 360 0.0 0.0 0.00 0.00 0.00 100 1012.5
20260905130036 27 360 0.0 0.0 0.00 0.00 0.00 100 1012.6
20260905124532 26 360 0.0 0.0 0.00 0.00 0.00 100 1012.5
20260905123011 26 360 0.0 0.0 0.00 0.00 0.00 100 1012.5
20260905121506 25 360 0.0 0.0 0.00 0.00 0.00 100 1012.3
20260905120052 25 360 0.0 0.0 0.00 0.00 0.00 100 1012.3
20260905114546 -17 0.0 0.0 0.00 0.00 0.00 1012.2
20260905113052 -17 0.0 0.0 0.00 0.00 0.00 1012.1
20260905111538 -17 0.0 0.0 0.00 0.00 0.00 1012.0
20260905110036 -17 0.0 0.0 0.00 0.00 0.00 1011.9
20260905104529 -17 0.0 0.0 0.00 0.00 0.00 1011.9
20260905103033 -17 0.0 0.0 0.00 0.00 0.00 1011.8
20260905101520 -17 0.0 0.0 0.00 0.00 0.00 1011.7
20260905100105 -17 0.0 0.0 0.00 0.00 0.00 1011.9
20260905094555 -17 0.0 0.0 0.00 0.00 0.00 1011.9
20260905093043 -17 0.0 0.0 0.00 0.00 0.00 1011.9
20260905091528 25 360 0.0 0.0 0.00 0.00 0.00 100 1011.8
20260905090008 25 360 0.0 0.0 0.00 0.00 0.00 100 1011.9
20260905084502 25 360 0.0 0.0 0.00 0.00 0.00 100 1011.8
20260905083041 25 360 0.0 0.0 0.00 0.00 0.00 100 1011.8
20260905081536 26 360 0.0 0.0 0.00 0.00 0.00 100 1011.8
20260905080018 26 360 0.0 0.0 0.00 0.00 0.00 100 1011.8
20260905074511 26 360 0.0 0.0 0.00 0.00 0.00 100 1011.7
20260905073048 26 360 0.0 0.0 0.00 0.00 0.00 100 1011.9
20260905071547 26 130 0.0 0.0 0.00 0.00 0.00 100 1011.9
20260905070034 26 130 0.0 0.0 0.00 0.00 0.00 100 1012.0
20260905064524 26 130 0.0 0.0 0.00 0.00 0.00 100 1012.0
20260905063019 26 130 0.0 0.0 0.00 0.00 0.00 100 1012.0
20260905061515 26 130 0.0 0.0 0.00 0.00 0.00 100 1012.1
20260905060010 26 130 0.0 0.0 0.00 0.00 0.00 100 1012.1
20260905054506 26 130 0.0 0.0 0.00 0.00 0.00 100 1012.1
20260905053003 27 130 0.0 0.0 0.00 0.00 0.00 100 1012.1
20260905051602 27 130 0.0 0.0 0.00 0.00 0.00 100 1012.1
20260905050053 27 130 0.0 0.0 0.00 0.00 0.00 100 1012.2
20260905044532 27 130 0.0 0.0 0.00 0.00 0.00 100 1012.2
20260905043027 27 130 0.0 0.0 0.00 0.00 0.00 100 1012.2
20260905041507 27 130 0.0 0.0 0.00 0.00 0.00 100 1012.2
20260905040001 27 130 0.0 0.0 0.00 0.00 0.00 100 1012.4
20260905034539 27 130 0.0 0.0 0.00 0.00 0.00 100 1012.5
20260905033035 28 130 0.0 0.0 0.00 0.00 0.00 100 1012.4
20260905031526 28 130 0.0 0.0 0.00 0.00 0.00 12 1012.4
20260905030024 29 130 0.0 0.0 0.00 0.00 0.00 33 1012.2
20260905024559 29 130 0.0 0.0 0.00 0.00 0.00 36 1012.2
20260905023058 29 130 0.0 0.0 0.00 0.00 0.00 37 1012.0
20260905021557 29 130 0.0 0.0 0.00 0.00 0.00 40 1012.0
20260905020108 30 130 0.0 0.0 0.00 0.00 0.00 44 1011.9
20260905014558 30 130 0.0 0.0 0.00 0.00 0.00 46 1011.7
20260905013104 30 130 0.0 0.0 0.00 0.00 0.00 48 1011.7
20260905011629 31 130 0.0 0.0 0.00 0.00 0.00 49 1011.5
20260905010054 31 130 0.0 0.0 0.00 0.00 0.00 51 1011.3
20260905004535 32 130 0.0 0.0 0.00 0.00 0.00 51 1011.3
20260905003037 32 130 0.0 0.0 0.00 0.00 0.00 49 1011.2
20260905001518 33 130 0.0 0.0 0.00 0.00 0.00 48 1011.2
20260905000013 34 130 0.0 0.0 0.00 0.00 0.00 47 1011.2
20260904234504 35 130 0.0 0.0 0.00 0.00 0.00 46 1011.3
20260904233002 35 130 0.0 0.0 0.00 0.00 0.00 45 1011.2
20260904231601 35 130 0.0 0.0 0.00 0.00 0.00 44 1011.1
20260904230100 35 127 0.0 0.0 0.00 0.00 0.00 43 1011.1
20260904224558 36 124 0.0 0.0 0.00 0.00 0.00 42 1011.1
20260904223057 36 127 0.0 0.0 0.00 0.00 0.00 42 1011.1
20260904221558 36 118 0.0 0.0 0.00 0.00 0.00 40 1011.2
20260904220058 36 111 0.0 0.0 0.00 0.00 0.00 41 1011.3
20260904214537 36 360 0.0 0.0 0.00 0.00 0.00 39 1011.4
20260904213036 36 360 0.0 0.0 0.00 0.00 0.00 40 1011.5
20260904211519 36 113 0.0 0.0 0.00 0.00 0.00 41 1011.5
20260904210017 36 360 0.0 0.0 0.00 0.00 0.00 42 1011.6